Weather History for K2G4 - January, 2013

Change the Weather History Date:

Wednesday, January 2, 2013

  Actual Average (KMGW) Record (KMGW)
Temperature  
Mean Temperature 18 °F 32 °F  
Max Temperature 21 °F 39 °F 70 °F (2000)
Min Temperature 15 °F 24 °F -8 °F (1968)
Degree Days  
Heating Degree Days 47 33  
Month to date heating degree days 66  
Since 1 July heating degree days 2050  
Cooling Degree Days 0 0  
Month to date cooling degree days 0  
Year to date cooling degree days 0  
Moisture  
Dew Point 17 °F    
Average Humidity 95    
Maximum Humidity 100    
Minimum Humidity 74    
Precipitation  
Precipitation 0.00 in 0.09 in - ()
Month to date precipitation 0.18  
Year to date precipitation 0.18  
Sea Level Pressure  
Sea Level Pressure 29.99 in    
Wind  
Wind Speed 4 mph (West)    
Max Wind Speed 7 mph    
Max Gust Speed -    
Visibility 8 miles    
Events      
T = Trace of Precipitation, MM = Missing Value Source: NWS Daily Summary

Daily Weather History Graph

Daily Weather History Graph

Search for Another Location

Airport or City:

Trip Planner

Search our weather history database for the weather conditions in past years. The results will help you decide how hot, cold, wet, or windy it might be!

Date:

Astronomy

Jan. 02, 2013 Rise Set
Actual Time 7:38 AM EST 5:05 PM EST
Civil Twilight 7:08 AM EST 5:35 PM EST
Nautical Twilight 6:34 AM EST 6:09 PM EST
Astronomical Twilight 6:01 AM EST 6:41 PM EST
Moon 10:34 PM EST (1/2) 10:20 AM EST (1/2)
Length of Visible Light 10h 27m
Length of Day
9h 27m
Waning Gibbous, 75% of the Moon is Illuminated
Jan 2
Waning Gibbous
Jan 4
Last Quarter
Jan 11
New
Jan 18
First Quarter
Jan 26
Full

Hourly Weather History & Observations

Time (EST) Temp. Windchill Dew Point Humidity Pressure Visibility Wind Dir Wind Speed Gust Speed Precip Events Conditions
12:15 AM 21.2 °F 14.9 °F 21.2 °F 100% 29.91 in 5.0 mi West 4.6 mph - N/A   Overcast
12:40 AM 21.2 °F 16.4 °F 21.2 °F 100% 29.92 in 5.0 mi West 3.5 mph - N/A   Overcast
1:00 AM 21.2 °F 14.9 °F 21.2 °F 100% 29.90 in 4.0 mi West 4.6 mph - N/A   Overcast
1:20 AM 21.2 °F 14.9 °F 21.2 °F 100% 29.89 in 4.0 mi West 4.6 mph - N/A   Overcast
1:40 AM 21.2 °F - 21.2 °F 100% 29.90 in 3.0 mi Calm Calm - N/A   Overcast
2:05 AM 21.2 °F - 21.2 °F 100% 29.90 in 1.2 mi Calm Calm - N/A   Overcast
2:25 AM 21.2 °F 16.4 °F 21.2 °F 100% 29.91 in 2.0 mi WNW 3.5 mph - N/A   Overcast
2:45 AM 21.2 °F 16.4 °F 21.2 °F 100% 29.90 in 3.0 mi West 3.5 mph - N/A   Overcast
3:10 AM 19.4 °F 12.8 °F 19.4 °F 100% 29.91 in 3.0 mi West 4.6 mph - N/A   Overcast
3:30 AM 19.4 °F 11.5 °F 19.4 °F 100% 29.91 in 3.0 mi WNW 5.8 mph - N/A   Overcast
3:50 AM 19.4 °F 14.3 °F 19.4 °F 100% 29.92 in 3.0 mi West 3.5 mph - N/A   Overcast
4:10 AM 19.4 °F 11.5 °F 19.4 °F 100% 29.91 in 5.0 mi West 5.8 mph - N/A   Overcast
4:35 AM 19.4 °F 14.3 °F 19.4 °F 100% 29.91 in 5.0 mi West 3.5 mph - N/A   Overcast
4:55 AM 19.4 °F 14.3 °F 19.4 °F 100% 29.92 in 5.0 mi West 3.5 mph - N/A   Overcast
5:15 AM 19.4 °F 11.5 °F 19.4 °F 100% 29.92 in 4.0 mi WNW 5.8 mph - N/A   Overcast
6:20 AM 17.6 °F 9.3 °F 17.6 °F 100% 29.93 in 4.0 mi WNW 5.8 mph - N/A   Overcast
6:40 AM 17.6 °F 12.3 °F 17.6 °F 100% 29.94 in 5.0 mi WNW 3.5 mph - N/A   Overcast
7:00 AM 17.6 °F 9.3 °F 17.6 °F 100% 29.95 in 7.0 mi West 5.8 mph - N/A   Overcast
7:25 AM 17.6 °F 9.3 °F 17.6 °F 100% 29.97 in 7.0 mi West 5.8 mph - N/A   Overcast
7:45 AM 17.6 °F 9.3 °F 17.6 °F 100% 29.98 in 10.0 mi West 5.8 mph - N/A   Overcast
8:05 AM 17.6 °F 10.7 °F 17.6 °F 100% 29.97 in 7.0 mi West 4.6 mph - N/A   Overcast
8:50 AM 17.6 °F 10.7 °F 17.6 °F 100% 29.99 in 5.0 mi WNW 4.6 mph - N/A   Overcast
9:10 AM 15.8 °F 8.6 °F 15.8 °F 100% 29.99 in 5.0 mi WNW 4.6 mph - N/A   Overcast
9:30 AM 17.6 °F 8.2 °F 17.6 °F 100% 29.99 in 4.0 mi West 6.9 mph - N/A   Overcast
9:50 AM 17.6 °F 8.2 °F 17.6 °F 100% 30.01 in 7.0 mi West 6.9 mph - N/A   Overcast
10:15 AM 17.6 °F 10.7 °F 17.6 °F 100% 30.02 in 10.0 mi West 4.6 mph - N/A   Overcast
10:35 AM 17.6 °F 9.3 °F 17.6 °F 100% 30.02 in 10.0 mi West 5.8 mph - N/A   Overcast
10:55 AM 17.6 °F 12.3 °F 17.6 °F 100% 30.02 in 10.0 mi West 3.5 mph - N/A   Overcast
11:15 AM 17.6 °F 9.3 °F 17.6 °F 100% 30.02 in 10.0 mi West 5.8 mph - N/A   Overcast
11:40 AM 17.6 °F 9.3 °F 17.6 °F 100% 30.01 in 10.0 mi West 5.8 mph - N/A   Mostly Cloudy
12:00 PM 17.6 °F 9.3 °F 17.6 °F 100% 30.01 in 10.0 mi West 5.8 mph - N/A   Scattered Clouds
12:20 PM 19.4 °F 12.8 °F 17.6 °F 93% 30.00 in 10.0 mi West 4.6 mph - N/A   Scattered Clouds
12:40 PM 19.4 °F 12.8 °F 17.6 °F 93% 30.01 in 10.0 mi West 4.6 mph - N/A   Clear
1:05 PM 19.4 °F 11.5 °F 17.6 °F 93% 30.00 in 10.0 mi WNW 5.8 mph - N/A   Clear
1:25 PM 19.4 °F 12.8 °F 15.8 °F 86% 30.00 in 10.0 mi West 4.6 mph - N/A   Clear
1:45 PM 21.2 °F 12.6 °F 17.6 °F 86% 30.00 in 10.0 mi West 6.9 mph - N/A   Clear
2:05 PM 19.4 °F 11.5 °F 15.8 °F 86% 30.00 in 10.0 mi West 5.8 mph - N/A   Clear
2:30 PM 21.2 °F 13.6 °F 14.0 °F 74% 29.99 in 10.0 mi West 5.8 mph - N/A   Clear
2:50 PM 21.2 °F 13.6 °F 14.0 °F 74% 30.01 in 10.0 mi WNW 5.8 mph - N/A   Clear
3:10 PM 21.2 °F 12.6 °F 15.8 °F 80% 30.02 in 10.0 mi West 6.9 mph - N/A   Clear
3:30 PM 21.2 °F 13.6 °F 15.8 °F 80% 30.01 in 10.0 mi West 5.8 mph - N/A   Clear
3:50 PM 21.2 °F 14.9 °F 15.8 °F 80% 30.01 in 10.0 mi West 4.6 mph - N/A   Clear
4:15 PM 19.4 °F 12.8 °F 14.0 °F 80% 30.02 in 10.0 mi West 4.6 mph - N/A   Clear
4:35 PM 19.4 °F 12.8 °F 15.8 °F 86% 30.02 in 10.0 mi WNW 4.6 mph - N/A   Clear
6:20 PM 17.6 °F 12.3 °F 14.0 °F 86% 30.04 in 10.0 mi WSW 3.5 mph - N/A   Clear
6:40 PM 17.6 °F - 15.8 °F 93% 30.05 in 10.0 mi Calm Calm - N/A   Clear
7:05 PM 17.6 °F 10.7 °F 15.8 °F 93% 30.05 in 10.0 mi WSW 4.6 mph - N/A   Clear
7:25 PM 17.6 °F 12.3 °F 15.8 °F 93% 30.05 in 10.0 mi WSW 3.5 mph - N/A   Clear
7:45 PM 17.6 °F 10.7 °F 15.8 °F 93% 30.05 in 10.0 mi West 4.6 mph - N/A   Clear
8:05 PM 17.6 °F 12.3 °F 15.8 °F 93% 30.05 in 10.0 mi WSW 3.5 mph - N/A   Clear
8:30 PM 17.6 °F 10.7 °F 15.8 °F 93% 30.05 in 10.0 mi West 4.6 mph - N/A   Clear
8:50 PM 17.6 °F 12.3 °F 15.8 °F 93% 30.06 in 10.0 mi West 3.5 mph - N/A   Clear
9:10 PM 17.6 °F 12.3 °F 15.8 °F 93% 30.06 in 10.0 mi West 3.5 mph - N/A   Clear
9:35 PM 17.6 °F 12.3 °F 14.0 °F 86% 30.07 in 10.0 mi WSW 3.5 mph - N/A   Clear
9:55 PM 17.6 °F 12.3 °F 14.0 °F 86% 30.08 in 10.0 mi WSW 3.5 mph - N/A   Clear
10:15 PM 15.8 °F 10.2 °F 15.8 °F 100% 30.08 in 10.0 mi West 3.5 mph - N/A   Clear
10:35 PM 17.6 °F 12.3 °F 15.8 °F 93% 30.07 in 10.0 mi WSW 3.5 mph - N/A   Clear
11:00 PM 17.6 °F 12.3 °F 15.8 °F 93% 30.07 in 10.0 mi WSW 3.5 mph - N/A   Clear
11:20 PM 17.6 °F - 15.8 °F 93% 30.08 in 10.0 mi Calm Calm - N/A   Clear
11:40 PM 15.8 °F - 15.8 °F 100% 30.07 in 10.0 mi Calm Calm - N/A   Clear